Location: Hurecourt
(47.9030°N, 6.0653°E)
Time: 10:40:05
(UTC+00:00)

Cosmos 614 Rocket - Pass Details

Date: 14 July 2020
Orbit: 732 x 764 km, 74.1° (Epoch: 05 August)

Event Time Altitude Azimuth Distance (km) Brightness Sun altitude
Exits shadow 00:43:21 32° 161° (SSE) 1,254 4.7 -19.1°
Maximum altitude 00:45:20 50° 106° (ESE) 945 4.4 -19.0°
Drops below altitude 10° 00:50:17 10° 32° (NNE) 2,269 7.6 -18.8°
Sets 00:52:42 0° 27° (NNE) 3,203 8.8 -18.7°
